Time,TemperatureF,DewpointF,PressureIn,WindDirection,WindDirectionDegrees,WindSpeedMPH,WindSpeedGustMPH,Humidity,HourlyPrecipIn,Conditions,Clouds,dailyrainin,SoftwareType,DateUTC
2013-01-07 00:00:00,35.5,32.0,30.22,NW,314,0.0,5.0,87,0.01,,,0.12,WUHU216DAVISVP2,2013-01-07 05:00:00,
2013-01-07 00:01:00,35.4,31.9,30.22,West,274,1.0,5.0,87,0.01,,,0.00,WUHU216DAVISVP2,2013-01-07 05:01:00,
2013-01-07 00:06:00,35.4,31.6,30.22,SW,234,2.0,6.0,86,0.01,,,0.00,WUHU216DAVISVP2,2013-01-07 05:06:00,
2013-01-07 00:11:00,35.5,31.7,30.22,WSW,256,3.0,8.0,86,0.01,,,0.00,WUHU216DAVISVP2,2013-01-07 05:11:00,
2013-01-07 00:16:00,35.5,31.4,30.22,SSW,209,3.0,8.0,85,0.01,,,0.00,WUHU216DAVISVP2,2013-01-07 05:16:00,
2013-01-07 00:21:00,35.5,31.4,30.23,NW,314,1.0,8.0,85,0.01,,,0.00,WUHU216DAVISVP2,2013-01-07 05:21:00,
2013-01-07 00:26:00,35.5,31.4,30.23,SW,229,0.0,8.0,85,0.01,,,0.00,WUHU216DAVISVP2,2013-01-07 05:26:00,
2013-01-07 00:31:00,35.5,31.4,30.23,NW,307,1.0,7.0,85,0.01,,,0.00,WUHU216DAVISVP2,2013-01-07 05:31:00,
2013-01-07 00:36:00,35.5,31.1,30.23,West,267,5.0,9.0,84,0.01,,,0.00,WUHU216DAVISVP2,2013-01-07 05:36:00,
2013-01-07 00:41:00,35.5,31.1,30.23,WNW,294,0.0,9.0,84,0.01,,,0.00,WUHU216DAVISVP2,2013-01-07 05:41:00,
2013-01-07 00:46:00,35.5,31.1,30.24,West,273,2.0,9.0,84,0.01,,,0.00,WUHU216DAVISVP2,2013-01-07 05:46:00,
2013-01-07 00:51:00,35.4,31.0,30.24,West,270,0.0,9.0,84,0.00,,,0.00,WUHU216DAVISVP2,2013-01-07 05:51:00,
2013-01-07 00:56:00,35.4,31.3,30.24,West,270,0.0,8.0,85,0.00,,,0.00,WUHU216DAVISVP2,2013-01-07 05:56:00,
2013-01-07 01:01:00,35.3,31.2,30.24,West,275,0.0,8.0,85,0.00,,,0.00,WUHU216DAVISVP2,2013-01-07 06:01:00,
2013-01-07 01:06:00,35.3,31.2,30.24,NNW,328,0.0,2.0,85,0.00,,,0.00,WUHU216DAVISVP2,2013-01-07 06:06:00,
2013-01-07 01:11:00,35.2,31.1,30.24,NNW,328,0.0,2.0,85,0.00,,,0.00,WUHU216DAVISVP2,2013-01-07 06:11:00,
2013-01-07 01:16:00,35.1,31.0,30.24,WSW,250,2.0,3.0,85,0.00,,,0.00,WUHU216DAVISVP2,2013-01-07 06:16:00,
2013-01-07 01:21:00,35.2,31.1,30.25,SSW,197,0.0,4.0,85,0.00,,,0.00,WUHU216DAVISVP2,2013-01-07 06:21:00,
2013-01-07 01:26:00,35.2,31.4,30.25,NNE,23,2.0,4.0,86,0.00,,,0.00,WUHU216DAVISVP2,2013-01-07 06:26:00,
2013-01-07 01:31:00,35.0,31.2,30.25,North,354,5.0,5.0,86,0.00,,,0.00,WUHU216DAVISVP2,2013-01-07 06:31:00,
2013-01-07 01:36:00,34.9,31.1,30.26,NNE,12,3.0,6.0,86,0.00,,,0.00,WUHU216DAVISVP2,2013-01-07 06:36:00,
2013-01-07 01:41:00,34.8,31.0,30.26,NNE,14,5.0,12.0,86,0.00,,,0.00,WUHU216DAVISVP2,2013-01-07 06:41:00,
2013-01-07 01:46:00,34.7,30.9,30.26,NNW,337,3.0,12.0,86,0.00,,,0.00,WUHU216DAVISVP2,2013-01-07 06:46:00,
2013-01-07 01:51:00,34.6,30.8,30.26,NW,325,6.0,12.0,86,0.00,,,0.00,WUHU216DAVISVP2,2013-01-07 06:51:00,
2013-01-07 01:56:00,34.5,31.0,30.27,NW,306,1.0,12.0,87,0.00,,,0.00,WUHU216DAVISVP2,2013-01-07 06:56:00,
2013-01-07 02:01:00,34.4,30.6,30.27,NW,323,1.0,8.0,86,0.00,,,0.00,WUHU216DAVISVP2,2013-01-07 07:01:00,
2013-01-07 02:06:00,34.4,30.6,30.27,WNW,301,1.0,9.0,86,0.00,,,0.00,WUHU216DAVISVP2,2013-01-07 07:06:00,
2013-01-07 02:11:00,34.3,30.2,30.27,NW,311,0.0,9.0,85,0.00,,,0.00,WUHU216DAVISVP2,2013-01-07 07:11:00,
2013-01-07 02:16:00,34.3,30.2,30.28,West,277,1.0,9.0,85,0.00,,,0.00,WUHU216DAVISVP2,2013-01-07 07:16:00,
2013-01-07 02:21:00,34.2,30.1,30.28,West,262,1.0,9.0,85,0.00,,,0.00,WUHU216DAVISVP2,2013-01-07 07:21:00,
2013-01-07 02:26:00,34.1,29.8,30.28,NW,324,0.0,4.0,84,0.00,,,0.00,WUHU216DAVISVP2,2013-01-07 07:26:00,
2013-01-07 02:31:00,34.1,29.8,30.29,West,270,1.0,9.0,84,0.00,,,0.00,WUHU216DAVISVP2,2013-01-07 07:31:00,
2013-01-07 02:36:00,34.0,29.7,30.29,WNW,303,1.0,9.0,84,0.00,,,0.00,WUHU216DAVISVP2,2013-01-07 07:36:00,
2013-01-07 02:41:00,33.9,29.6,30.29,NW,314,0.0,9.0,84,0.00,,,0.00,WUHU216DAVISVP2,2013-01-07 07:41:00,
2013-01-07 02:46:00,33.8,29.5,30.29,NNW,348,3.0,9.0,84,0.00,,,0.00,WUHU216DAVISVP2,2013-01-07 07:46:00,
2013-01-07 02:51:00,33.7,29.4,30.29,NW,325,0.0,9.0,84,0.00,,,0.00,WUHU216DAVISVP2,2013-01-07 07:51:00,
2013-01-07 02:56:00,33.7,29.4,30.30,WNW,303,1.0,9.0,84,0.00,,,0.00,WUHU216DAVISVP2,2013-01-07 07:56:00,
2013-01-07 03:01:00,33.7,29.6,30.30,SW,226,1.0,5.0,85,0.00,,,0.00,WUHU216DAVISVP2,2013-01-07 08:01:00,
2013-01-07 03:06:00,33.5,29.5,30.30,NNW,329,1.0,9.0,85,0.00,,,0.00,WUHU216DAVISVP2,2013-01-07 08:06:00,
2013-01-07 03:11:00,33.5,29.5,30.30,WNW,285,0.0,9.0,85,0.00,,,0.00,WUHU216DAVISVP2,2013-01-07 08:11:00,
2013-01-07 03:16:00,33.5,29.2,30.30,North,4,2.0,9.0,84,0.00,,,0.00,WUHU216DAVISVP2,2013-01-07 08:16:00,
2013-01-07 03:21:00,33.4,28.8,30.30,NW,309,2.0,9.0,83,0.00,,,0.00,WUHU216DAVISVP2,2013-01-07 08:21:00,
2013-01-07 03:26:00,33.4,29.1,30.30,SW,224,4.0,7.0,84,0.00,,,0.00,WUHU216DAVISVP2,2013-01-07 08:26:00,
2013-01-07 03:31:00,33.4,28.8,30.31,WNW,287,2.0,8.0,83,0.00,,,0.00,WUHU216DAVISVP2,2013-01-07 08:31:00,
2013-01-07 03:36:00,33.3,28.7,30.31,NW,323,0.0,8.0,83,0.00,,,0.00,WUHU216DAVISVP2,2013-01-07 08:36:00,
2013-01-07 03:41:00,33.3,28.7,30.31,NNW,330,3.0,8.0,83,0.00,,,0.00,WUHU216DAVISVP2,2013-01-07 08:41:00,
2013-01-07 03:46:00,33.2,28.6,30.31,NW,308,5.0,8.0,83,0.00,,,0.00,WUHU216DAVISVP2,2013-01-07 08:46:00,
2013-01-07 03:51:00,33.2,28.9,30.32,NNW,341,3.0,7.0,84,0.00,,,0.00,WUHU216DAVISVP2,2013-01-07 08:51:00,
2013-01-07 03:56:00,33.1,28.8,30.32,NW,312,1.0,7.0,84,0.00,,,0.00,WUHU216DAVISVP2,2013-01-07 08:56:00,
2013-01-07 04:01:00,32.9,28.6,30.32,SW,231,4.0,8.0,84,0.00,,,0.00,WUHU216DAVISVP2,2013-01-07 09:01:00,
2013-01-07 04:06:00,32.8,28.8,30.32,WNW,298,3.0,8.0,85,0.00,,,0.00,WUHU216DAVISVP2,2013-01-07 09:06:00,
2013-01-07 04:11:00,32.8,28.5,30.32,NW,317,2.0,11.0,84,0.00,,,0.00,WUHU216DAVISVP2,2013-01-07 09:11:00,
2013-01-07 04:16:00,32.8,28.5,30.32,WNW,286,2.0,11.0,84,0.00,,,0.00,WUHU216DAVISVP2,2013-01-07 09:16:00,
2013-01-07 04:21:00,32.7,28.4,30.32,WSW,256,2.0,12.0,84,0.00,,,0.00,WUHU216DAVISVP2,2013-01-07 09:21:00,
2013-01-07 04:26:00,32.6,28.3,30.32,WNW,296,1.0,12.0,84,0.00,,,0.00,WUHU216DAVISVP2,2013-01-07 09:26:00,
2013-01-07 04:31:00,32.6,28.3,30.32,NW,312,0.0,12.0,84,0.00,,,0.00,WUHU216DAVISVP2,2013-01-07 09:31:00,
2013-01-07 04:36:00,32.6,28.0,30.33,WNW,285,0.0,12.0,83,0.00,,,0.00,WUHU216DAVISVP2,2013-01-07 09:36:00,
2013-01-07 04:41:00,32.6,28.3,30.33,North,4,8.0,10.0,84,0.00,,,0.00,WUHU216DAVISVP2,2013-01-07 09:41:00,
2013-01-07 04:46:00,32.5,28.2,30.33,North,10,6.0,8.0,84,0.00,,,0.00,WUHU216DAVISVP2,2013-01-07 09:46:00,
2013-01-07 04:51:00,32.5,28.2,30.34,West,279,1.0,8.0,84,0.00,,,0.00,WUHU216DAVISVP2,2013-01-07 09:51:00,
2013-01-07 04:56:00,32.4,28.4,30.33,West,277,1.0,8.0,85,0.00,,,0.00,WUHU216DAVISVP2,2013-01-07 09:56:00,
2013-01-07 05:01:00,32.4,28.4,30.34,NW,326,0.0,7.0,85,0.00,,,0.00,WUHU216DAVISVP2,2013-01-07 10:01:00,
2013-01-07 05:06:00,32.3,28.0,30.34,WSW,253,0.0,5.0,84,0.00,,,0.00,WUHU216DAVISVP2,2013-01-07 10:06:00,
2013-01-07 05:11:00,32.3,28.0,30.34,NW,312,0.0,6.0,84,0.00,,,0.00,WUHU216DAVISVP2,2013-01-07 10:11:00,
2013-01-07 05:16:00,32.3,28.0,30.34,West,268,0.0,6.0,84,0.00,,,0.00,WUHU216DAVISVP2,2013-01-07 10:16:00,
2013-01-07 05:21:00,32.3,27.7,30.34,WNW,293,0.0,6.0,83,0.00,,,0.00,WUHU216DAVISVP2,2013-01-07 10:21:00,
2013-01-07 05:26:00,32.3,28.0,30.34,WNW,302,2.0,4.0,84,0.00,,,0.00,WUHU216DAVISVP2,2013-01-07 10:26:00,
2013-01-07 05:31:00,32.3,27.7,30.34,NW,323,0.0,4.0,83,0.00,,,0.00,WUHU216DAVISVP2,2013-01-07 10:31:00,
2013-01-07 05:36:00,32.3,27.7,30.34,WNW,301,5.0,5.0,83,0.00,,,0.00,WUHU216DAVISVP2,2013-01-07 10:36:00,
2013-01-07 05:41:00,32.3,27.7,30.34,WNW,294,1.0,5.0,83,0.00,,,0.00,WUHU216DAVISVP2,2013-01-07 10:41:00,
2013-01-07 05:46:00,32.3,27.7,30.34,WNW,283,2.0,5.0,83,0.00,,,0.00,WUHU216DAVISVP2,2013-01-07 10:46:00,
2013-01-07 05:51:00,32.2,27.3,30.34,NW,315,1.0,5.0,82,0.00,,,0.00,WUHU216DAVISVP2,2013-01-07 10:51:00,
2013-01-07 05:56:00,32.2,27.6,30.35,NW,304,2.0,5.0,83,0.00,,,0.00,WUHU216DAVISVP2,2013-01-07 10:56:00,
2013-01-07 06:01:00,32.2,27.6,30.35,NNW,338,0.0,5.0,83,0.00,,,0.00,WUHU216DAVISVP2,2013-01-07 11:01:00,
2013-01-07 06:06:00,32.2,27.3,30.35,West,278,2.0,5.0,82,0.00,,,0.00,WUHU216DAVISVP2,2013-01-07 11:06:00,
2013-01-07 06:11:00,32.1,27.5,30.36,NNW,333,4.0,5.0,83,0.00,,,0.00,WUHU216DAVISVP2,2013-01-07 11:11:00,
2013-01-07 06:16:00,32.1,27.2,30.36,West,260,0.0,5.0,82,0.00,,,0.00,WUHU216DAVISVP2,2013-01-07 11:16:00,
2013-01-07 06:21:00,32.1,27.5,30.36,West,262,0.0,5.0,83,0.00,,,0.00,WUHU216DAVISVP2,2013-01-07 11:21:00,
2013-01-07 06:26:00,32.0,27.4,30.36,NW,313,0.0,4.0,83,0.00,,,0.00,WUHU216DAVISVP2,2013-01-07 11:26:00,
2013-01-07 06:31:00,32.0,27.4,30.37,NW,304,0.0,4.0,83,0.00,,,0.00,WUHU216DAVISVP2,2013-01-07 11:31:00,
2013-01-07 06:36:00,31.9,27.3,30.37,West,265,0.0,4.0,83,0.00,,,0.00,WUHU216DAVISVP2,2013-01-07 11:36:00,
2013-01-07 06:41:00,31.9,27.3,30.37,WNW,294,1.0,4.0,83,0.00,,,0.00,WUHU216DAVISVP2,2013-01-07 11:41:00,
2013-01-07 06:46:00,31.8,27.2,30.38,WNW,298,1.0,4.0,83,0.00,,,0.00,WUHU216DAVISVP2,2013-01-07 11:46:00,
2013-01-07 06:51:00,31.7,27.1,30.38,WSW,238,1.0,4.0,83,0.00,,,0.00,WUHU216DAVISVP2,2013-01-07 11:51:00,
2013-01-07 06:56:00,31.7,27.1,30.38,NW,308,6.0,7.0,83,0.00,,,0.00,WUHU216DAVISVP2,2013-01-07 11:56:00,
2013-01-07 07:02:00,31.7,27.1,30.38,NW,306,1.0,7.0,83,0.00,,,0.00,WUHU216DAVISVP2,2013-01-07 12:02:00,
2013-01-07 07:06:00,31.7,27.1,30.38,NNW,332,2.0,7.0,83,0.00,,,0.00,WUHU216DAVISVP2,2013-01-07 12:06:00,
2013-01-07 07:12:00,31.7,27.1,30.38,West,262,1.0,7.0,83,0.00,,,0.00,WUHU216DAVISVP2,2013-01-07 12:12:00,
2013-01-07 07:17:00,31.6,27.0,30.39,NNW,335,0.0,6.0,83,0.00,,,0.00,WUHU216DAVISVP2,2013-01-07 12:17:00,
2013-01-07 07:22:00,31.6,27.3,30.39,WNW,296,1.0,6.0,84,0.00,,,0.00,WUHU216DAVISVP2,2013-01-07 12:22:00,
2013-01-07 07:27:00,31.6,27.3,30.39,NW,314,0.0,5.0,84,0.00,,,0.00,WUHU216DAVISVP2,2013-01-07 12:27:00,
2013-01-07 07:32:00,31.5,27.2,30.40,WSW,253,0.0,5.0,84,0.00,,,0.00,WUHU216DAVISVP2,2013-01-07 12:32:00,
2013-01-07 07:37:00,31.5,27.5,30.40,WNW,299,2.0,3.0,85,0.00,,,0.00,WUHU216DAVISVP2,2013-01-07 12:37:00,
2013-01-07 07:42:00,31.5,27.5,30.41,WNW,299,2.0,3.0,85,0.00,,,0.00,WUHU216DAVISVP2,2013-01-07 12:42:00,
2013-01-07 07:47:00,31.4,27.1,30.40,SW,222,0.0,3.0,84,0.00,,,0.00,WUHU216DAVISVP2,2013-01-07 12:47:00,
2013-01-07 07:52:00,31.4,27.4,30.41,SW,214,1.0,4.0,85,0.00,,,0.00,WUHU216DAVISVP2,2013-01-07 12:52:00,
2013-01-07 07:57:00,31.4,27.1,30.41,SW,226,0.0,4.0,84,0.00,,,0.00,WUHU216DAVISVP2,2013-01-07 12:57:00,
2013-01-07 08:02:00,31.4,27.1,30.41,WNW,289,1.0,4.0,84,0.00,,,0.00,WUHU216DAVISVP2,2013-01-07 13:02:00,
2013-01-07 08:07:00,31.4,27.1,30.41,West,278,2.0,4.0,84,0.00,,,0.00,WUHU216DAVISVP2,2013-01-07 13:07:00,
2013-01-07 08:12:00,31.4,27.1,30.42,WNW,289,0.0,4.0,84,0.00,,,0.00,WUHU216DAVISVP2,2013-01-07 13:12:00,
2013-01-07 08:17:00,31.4,27.1,30.42,WNW,291,0.0,4.0,84,0.00,,,0.00,WUHU216DAVISVP2,2013-01-07 13:17:00,
2013-01-07 08:22:00,31.5,27.2,30.42,WNW,291,0.0,4.0,84,0.00,,,0.00,WUHU216DAVISVP2,2013-01-07 13:22:00,
2013-01-07 08:27:00,31.5,27.2,30.42,WNW,291,0.0,3.0,84,0.00,,,0.00,WUHU216DAVISVP2,2013-01-07 13:27:00,
2013-01-07 08:32:00,31.5,27.2,30.43,WNW,291,0.0,2.0,84,0.00,,,0.00,WUHU216DAVISVP2,2013-01-07 13:32:00,
2013-01-07 08:37:00,31.5,26.9,30.42,SW,232,1.0,5.0,83,0.00,,,0.00,WUHU216DAVISVP2,2013-01-07 13:37:00,
2013-01-07 08:42:00,31.6,27.3,30.43,SSW,213,0.0,5.0,84,0.00,,,0.00,WUHU216DAVISVP2,2013-01-07 13:42:00,
2013-01-07 08:47:00,31.6,27.0,30.43,WSW,237,0.0,5.0,83,0.00,,,0.00,WUHU216DAVISVP2,2013-01-07 13:47:00,
2013-01-07 08:52:00,31.6,27.3,30.43,SW,233,1.0,5.0,84,0.00,,,0.00,WUHU216DAVISVP2,2013-01-07 13:52:00,
2013-01-07 08:57:00,31.6,27.3,30.44,WSW,249,1.0,4.0,84,0.00,,,0.00,WUHU216DAVISVP2,2013-01-07 13:57:00,
2013-01-07 09:02:00,31.7,27.4,30.44,West,271,0.0,4.0,84,0.00,,,0.00,WUHU216DAVISVP2,2013-01-07 14:02:00,
2013-01-07 09:07:00,31.8,27.5,30.44,West,271,0.0,3.0,84,0.00,,,0.00,WUHU216DAVISVP2,2013-01-07 14:07:00,
2013-01-07 09:12:00,31.8,27.2,30.45,SSW,209,1.0,5.0,83,0.00,,,0.00,WUHU216DAVISVP2,2013-01-07 14:12:00,
2013-01-07 09:17:00,31.9,27.3,30.45,SSW,210,2.0,5.0,83,0.00,,,0.00,WUHU216DAVISVP2,2013-01-07 14:17:00,
2013-01-07 09:22:00,32.0,27.4,30.45,NW,316,0.0,5.0,83,0.00,,,0.00,WUHU216DAVISVP2,2013-01-07 14:22:00,
2013-01-07 09:27:00,32.0,27.4,30.46,SW,223,0.0,5.0,83,0.00,,,0.00,WUHU216DAVISVP2,2013-01-07 14:27:00,
2013-01-07 09:32:00,32.2,27.3,30.46,WSW,244,0.0,5.0,82,0.00,,,0.00,WUHU216DAVISVP2,2013-01-07 14:32:00,
2013-01-07 09:37:00,32.3,27.4,30.46,SW,217,1.0,5.0,82,0.00,,,0.00,WUHU216DAVISVP2,2013-01-07 14:37:00,
2013-01-07 09:42:00,32.4,27.5,30.46,WSW,239,0.0,5.0,82,0.00,,,0.00,WUHU216DAVISVP2,2013-01-07 14:42:00,
2013-01-07 09:47:00,32.5,27.6,30.46,West,261,2.0,5.0,82,0.00,,,0.00,WUHU216DAVISVP2,2013-01-07 14:47:00,
2013-01-07 09:52:00,32.7,27.2,30.46,NW,318,3.0,7.0,80,0.00,,,0.00,WUHU216DAVISVP2,2013-01-07 14:52:00,
2013-01-07 09:57:00,32.8,27.3,30.46,West,269,0.0,7.0,80,0.00,,,0.00,WUHU216DAVISVP2,2013-01-07 14:57:00,
2013-01-07 10:02:00,32.9,27.4,30.46,SW,235,1.0,7.0,80,0.00,,,0.00,WUHU216DAVISVP2,2013-01-07 15:02:00,
2013-01-07 10:07:00,33.2,27.7,30.47,West,266,0.0,7.0,80,0.00,,,0.00,WUHU216DAVISVP2,2013-01-07 15:07:00,
2013-01-07 10:12:00,33.4,27.9,30.47,SW,218,2.0,5.0,80,0.00,,,0.00,WUHU216DAVISVP2,2013-01-07 15:12:00,
2013-01-07 10:17:00,33.5,27.7,30.47,WNW,282,2.0,4.0,79,0.00,,,0.00,WUHU216DAVISVP2,2013-01-07 15:17:00,
2013-01-07 10:21:00,33.7,27.6,30.47,SSW,201,6.0,6.0,78,0.00,,,0.00,WUHU216DAVISVP2,2013-01-07 15:21:00,
2013-01-07 10:26:00,33.5,27.1,30.48,SSW,209,4.0,9.0,77,0.00,,,0.00,WUHU216DAVISVP2,2013-01-07 15:26:00,
2013-01-07 10:31:00,33.3,27.2,30.48,SW,221,1.0,9.0,78,0.00,,,0.00,WUHU216DAVISVP2,2013-01-07 15:31:00,
2013-01-07 10:36:00,33.3,26.9,30.48,SW,226,5.0,9.0,77,0.00,,,0.00,WUHU216DAVISVP2,2013-01-07 15:36:00,
2013-01-07 10:41:00,33.3,26.5,30.48,SSW,209,4.0,10.0,76,0.00,,,0.00,WUHU216DAVISVP2,2013-01-07 15:41:00,
2013-01-07 10:46:00,33.4,27.3,30.48,West,275,5.0,10.0,78,0.00,,,0.00,WUHU216DAVISVP2,2013-01-07 15:46:00,
2013-01-07 10:51:00,33.5,27.1,30.48,SSW,205,4.0,10.0,77,0.00,,,0.00,WUHU216DAVISVP2,2013-01-07 15:51:00,
2013-01-07 10:56:00,33.5,26.8,30.48,WSW,256,3.0,10.0,76,0.00,,,0.00,WUHU216DAVISVP2,2013-01-07 15:56:00,
2013-01-07 11:01:00,33.4,27.0,30.49,SW,228,2.0,8.0,77,0.00,,,0.00,WUHU216DAVISVP2,2013-01-07 16:01:00,
2013-01-07 11:06:00,33.5,27.1,30.49,SW,214,3.0,8.0,77,0.00,,,0.00,WUHU216DAVISVP2,2013-01-07 16:06:00,
2013-01-07 11:11:00,33.5,26.8,30.48,WSW,238,4.0,7.0,76,0.00,,,0.00,WUHU216DAVISVP2,2013-01-07 16:11:00,
2013-01-07 11:16:00,33.5,25.8,30.48,NNW,345,4.0,7.0,73,0.00,,,0.00,WUHU216DAVISVP2,2013-01-07 16:16:00,
2013-01-07 11:21:00,33.6,26.6,30.48,NW,312,1.0,6.0,75,0.00,,,0.00,WUHU216DAVISVP2,2013-01-07 16:21:00,
2013-01-07 11:26:00,33.8,26.8,30.48,West,260,2.0,6.0,75,0.01,,,0.01,WUHU216DAVISVP2,2013-01-07 16:26:00,
2013-01-07 11:31:00,33.9,26.9,30.47,WSW,258,0.0,5.0,75,0.01,,,0.01,WUHU216DAVISVP2,2013-01-07 16:31:00,
2013-01-07 11:36:00,34.0,26.6,30.47,WNW,285,0.0,5.0,74,0.01,,,0.01,WUHU216DAVISVP2,2013-01-07 16:36:00,
2013-01-07 11:41:00,34.0,26.3,30.47,SSW,199,0.0,5.0,73,0.01,,,0.01,WUHU216DAVISVP2,2013-01-07 16:41:00,
2013-01-07 11:46:00,34.0,26.3,30.48,SW,226,4.0,5.0,73,0.01,,,0.01,WUHU216DAVISVP2,2013-01-07 16:46:00,
2013-01-07 11:51:00,33.9,26.2,30.48,West,278,3.0,6.0,73,0.01,,,0.01,WUHU216DAVISVP2,2013-01-07 16:51:00,
2013-01-07 11:56:00,33.8,26.4,30.48,WSW,240,4.0,10.0,74,0.01,,,0.01,WUHU216DAVISVP2,2013-01-07 16:56:00,
2013-01-07 12:01:00,33.6,26.6,30.47,SSW,211,0.0,10.0,75,0.01,,,0.01,WUHU216DAVISVP2,2013-01-07 17:01:00,
2013-01-07 12:06:00,33.7,26.7,30.47,WNW,297,0.0,10.0,75,0.01,,,0.01,WUHU216DAVISVP2,2013-01-07 17:06:00,
2013-01-07 12:11:00,33.8,26.8,30.47,SSW,208,3.0,10.0,75,0.01,,,0.01,WUHU216DAVISVP2,2013-01-07 17:11:00,
2013-01-07 12:16:00,33.8,26.4,30.46,West,266,0.0,5.0,74,0.01,,,0.01,WUHU216DAVISVP2,2013-01-07 17:16:00,
2013-01-07 12:21:00,33.9,26.8,30.46,NW,326,1.0,5.0,75,0.01,,,0.01,WUHU216DAVISVP2,2013-01-07 17:21:00,
2013-01-07 12:26:00,34.0,26.6,30.45,SSW,209,4.0,7.0,74,0.00,,,0.01,WUHU216DAVISVP2,2013-01-07 17:26:00,
2013-01-07 12:31:00,33.9,25.9,30.45,WSW,247,1.0,7.0,72,0.00,,,0.01,WUHU216DAVISVP2,2013-01-07 17:31:00,
2013-01-07 12:36:00,34.0,26.0,30.45,NNW,332,2.0,7.0,72,0.00,,,0.01,WUHU216DAVISVP2,2013-01-07 17:36:00,
2013-01-07 12:41:00,34.1,26.1,30.44,SSW,197,3.0,7.0,72,0.00,,,0.01,WUHU216DAVISVP2,2013-01-07 17:41:00,
2013-01-07 12:46:00,34.0,26.3,30.45,SW,219,2.0,7.0,73,0.00,,,0.01,WUHU216DAVISVP2,2013-01-07 17:46:00,
2013-01-07 12:51:00,34.0,26.0,30.44,SW,223,2.0,7.0,72,0.00,,,0.01,WUHU216DAVISVP2,2013-01-07 17:51:00,
2013-01-07 12:56:00,33.9,26.2,30.44,WSW,245,2.0,7.0,73,0.00,,,0.01,WUHU216DAVISVP2,2013-01-07 17:56:00,
2013-01-07 13:01:00,33.9,26.2,30.44,SW,228,0.0,7.0,73,0.00,,,0.01,WUHU216DAVISVP2,2013-01-07 18:01:00,
2013-01-07 13:06:00,33.9,26.2,30.44,WSW,238,0.0,7.0,73,0.00,,,0.01,WUHU216DAVISVP2,2013-01-07 18:06:00,
2013-01-07 13:11:00,34.0,26.3,30.44,West,281,0.0,5.0,73,0.00,,,0.01,WUHU216DAVISVP2,2013-01-07 18:11:00,
2013-01-07 13:16:00,34.1,26.1,30.43,NNW,334,2.0,5.0,72,0.00,,,0.01,WUHU216DAVISVP2,2013-01-07 18:16:00,
2013-01-07 13:21:00,34.2,26.1,30.44,WNW,286,0.0,5.0,72,0.00,,,0.01,WUHU216DAVISVP2,2013-01-07 18:21:00,
2013-01-07 13:26:00,34.3,26.2,30.44,WSW,245,0.0,4.0,72,0.01,,,0.02,WUHU216DAVISVP2,2013-01-07 18:26:00,
2013-01-07 13:31:00,34.4,26.3,30.43,NW,304,0.0,3.0,72,0.01,,,0.02,WUHU216DAVISVP2,2013-01-07 18:31:00,
2013-01-07 13:36:00,34.3,25.9,30.44,West,265,0.0,3.0,71,0.01,,,0.02,WUHU216DAVISVP2,2013-01-07 18:36:00,
2013-01-07 13:41:00,34.4,26.0,30.43,ENE,75,0.0,3.0,71,0.01,,,0.02,WUHU216DAVISVP2,2013-01-07 18:41:00,
2013-01-07 13:46:00,34.4,26.0,30.43,SSW,207,0.0,4.0,71,0.01,,,0.02,WUHU216DAVISVP2,2013-01-07 18:46:00,
2013-01-07 13:51:00,34.4,26.4,30.43,SW,218,0.0,4.0,72,0.01,,,0.02,WUHU216DAVISVP2,2013-01-07 18:51:00,
2013-01-07 13:56:00,34.3,25.9,30.43,SW,220,2.0,4.0,71,0.01,,,0.02,WUHU216DAVISVP2,2013-01-07 18:56:00,
2013-01-07 14:01:00,34.3,25.9,30.43,SW,214,0.0,5.0,71,0.01,,,0.02,WUHU216DAVISVP2,2013-01-07 19:01:00,
2013-01-07 14:06:00,34.3,25.9,30.42,SSW,204,1.0,5.0,71,0.01,,,0.02,WUHU216DAVISVP2,2013-01-07 19:06:00,
2013-01-07 14:11:00,34.4,26.0,30.42,SSW,192,2.0,5.0,71,0.01,,,0.02,WUHU216DAVISVP2,2013-01-07 19:11:00,
2013-01-07 14:16:00,34.4,26.0,30.42,SW,218,1.0,4.0,71,0.01,,,0.02,WUHU216DAVISVP2,2013-01-07 19:16:00,
2013-01-07 14:21:00,34.4,25.7,30.42,SW,233,0.0,4.0,70,0.01,,,0.02,WUHU216DAVISVP2,2013-01-07 19:21:00,
2013-01-07 14:26:00,34.5,26.1,30.42,WSW,241,0.0,4.0,71,0.00,,,0.02,WUHU216DAVISVP2,2013-01-07 19:26:00,
2013-01-07 14:31:00,34.5,26.1,30.42,WSW,243,0.0,3.0,71,0.00,,,0.02,WUHU216DAVISVP2,2013-01-07 19:31:00,
2013-01-07 14:36:00,34.6,26.6,30.42,West,270,0.0,3.0,72,0.00,,,0.02,WUHU216DAVISVP2,2013-01-07 19:36:00,
2013-01-07 14:41:00,34.8,26.8,30.43,WSW,252,0.0,3.0,72,0.00,,,0.02,WUHU216DAVISVP2,2013-01-07 19:41:00,
2013-01-07 14:46:00,35.1,27.0,30.43,SW,235,1.0,3.0,72,0.00,,,0.02,WUHU216DAVISVP2,2013-01-07 19:46:00,
2013-01-07 14:51:00,35.2,27.1,30.43,SW,222,0.0,2.0,72,0.00,,,0.02,WUHU216DAVISVP2,2013-01-07 19:51:00,
2013-01-07 14:56:00,35.5,26.8,30.43,SW,222,0.0,2.0,70,0.00,,,0.02,WUHU216DAVISVP2,2013-01-07 19:56:00,
2013-01-07 15:01:00,36.2,26.6,30.42,SW,233,0.0,3.0,68,0.01,,,0.03,WUHU216DAVISVP2,2013-01-07 20:01:00,
2013-01-07 15:06:00,36.8,27.2,30.42,SSE,161,0.0,3.0,68,0.01,,,0.03,WUHU216DAVISVP2,2013-01-07 20:06:00,
2013-01-07 15:11:00,37.0,26.7,30.42,SW,214,0.0,4.0,66,0.01,,,0.03,WUHU216DAVISVP2,2013-01-07 20:11:00,
2013-01-07 15:16:00,37.1,27.2,30.42,SSW,193,1.0,4.0,67,0.01,,,0.03,WUHU216DAVISVP2,2013-01-07 20:16:00,
2013-01-07 15:19:00,37.1,27.2,30.42,South,176,1.0,4.0,67,0.01,,,0.03,WUHU216DAVISVP2,2013-01-07 20:19:00,
2013-01-07 15:24:00,37.0,27.4,30.43,South,174,0.0,6.0,68,0.01,,,0.03,WUHU216DAVISVP2,2013-01-07 20:24:00,
2013-01-07 15:29:00,36.9,26.6,30.43,South,177,1.0,6.0,66,0.01,,,0.03,WUHU216DAVISVP2,2013-01-07 20:29:00,
2013-01-07 15:34:00,36.7,26.8,30.43,SSW,199,3.0,6.0,67,0.01,,,0.03,WUHU216DAVISVP2,2013-01-07 20:34:00,
2013-01-07 15:39:00,36.4,26.8,30.43,SSE,164,3.0,5.0,68,0.01,,,0.03,WUHU216DAVISVP2,2013-01-07 20:39:00,
2013-01-07 15:44:00,36.2,26.3,30.43,South,171,2.0,4.0,67,0.01,,,0.03,WUHU216DAVISVP2,2013-01-07 20:44:00,
2013-01-07 15:49:00,36.1,26.6,30.43,SSE,162,3.0,6.0,68,0.01,,,0.03,WUHU216DAVISVP2,2013-01-07 20:49:00,
2013-01-07 15:54:00,35.9,26.8,30.43,SSE,168,2.0,6.0,69,0.01,,,0.03,WUHU216DAVISVP2,2013-01-07 20:54:00,
2013-01-07 15:59:00,35.5,26.4,30.43,SSE,147,0.0,7.0,69,0.01,,,0.03,WUHU216DAVISVP2,2013-01-07 20:59:00,
2013-01-07 16:04:00,35.3,26.6,30.43,South,182,0.0,7.0,70,0.00,,,0.03,WUHU216DAVISVP2,2013-01-07 21:04:00,
2013-01-07 16:09:00,35.1,26.4,30.43,SSE,165,0.0,7.0,70,0.00,,,0.03,WUHU216DAVISVP2,2013-01-07 21:09:00,
2013-01-07 16:14:00,34.9,26.2,30.43,SSE,168,2.0,7.0,70,0.01,,,0.04,WUHU216DAVISVP2,2013-01-07 21:14:00,
2013-01-07 16:19:00,34.5,25.8,30.43,SSE,162,0.0,6.0,70,0.01,,,0.04,WUHU216DAVISVP2,2013-01-07 21:19:00,
2013-01-07 16:24:00,34.1,26.1,30.42,SSE,166,1.0,6.0,72,0.01,,,0.04,WUHU216DAVISVP2,2013-01-07 21:24:00,
2013-01-07 16:29:00,33.7,26.0,30.42,South,179,1.0,5.0,73,0.01,,,0.04,WUHU216DAVISVP2,2013-01-07 21:29:00,
2013-01-07 16:34:00,33.4,25.4,30.42,South,179,1.0,5.0,72,0.01,,,0.04,WUHU216DAVISVP2,2013-01-07 21:34:00,
2013-01-07 16:39:00,33.1,25.4,30.42,SW,222,0.0,3.0,73,0.01,,,0.04,WUHU216DAVISVP2,2013-01-07 21:39:00,
2013-01-07 16:44:00,32.9,25.2,30.42,SW,222,0.0,3.0,73,0.01,,,0.04,WUHU216DAVISVP2,2013-01-07 21:44:00,
2013-01-07 16:49:00,32.8,25.7,30.42,SW,222,0.0,3.0,75,0.01,,,0.04,WUHU216DAVISVP2,2013-01-07 21:49:00,
2013-01-07 16:54:00,32.6,25.6,30.42,SW,222,0.0,3.0,75,0.01,,,0.04,WUHU216DAVISVP2,2013-01-07 21:54:00,
2013-01-07 16:59:00,32.3,25.6,30.42,SW,222,0.0,0.0,76,0.01,,,0.04,WUHU216DAVISVP2,2013-01-07 21:59:00,
2013-01-07 17:04:00,32.0,25.3,30.42,SW,222,0.0,0.0,76,0.01,,,0.04,WUHU216DAVISVP2,2013-01-07 22:04:00,
2013-01-07 17:09:00,31.6,25.2,30.42,SW,222,0.0,0.0,77,0.01,,,0.04,WUHU216DAVISVP2,2013-01-07 22:09:00,
2013-01-07 17:14:00,31.3,25.6,30.42,SW,222,0.0,0.0,79,0.00,,,0.04,WUHU216DAVISVP2,2013-01-07 22:14:00,
2013-01-07 17:18:00,30.9,25.2,30.43,SW,222,0.0,0.0,79,0.00,,,0.04,WUHU216DAVISVP2,2013-01-07 22:18:00,
2013-01-07 17:24:00,30.6,25.2,30.43,SW,222,0.0,0.0,80,0.00,,,0.04,WUHU216DAVISVP2,2013-01-07 22:24:00,
2013-01-07 17:29:00,30.2,24.8,30.43,SW,222,0.0,0.0,80,0.00,,,0.04,WUHU216DAVISVP2,2013-01-07 22:29:00,
2013-01-07 17:34:00,29.8,24.7,30.43,SW,222,0.0,0.0,81,0.00,,,0.04,WUHU216DAVISVP2,2013-01-07 22:34:00,
2013-01-07 17:39:00,29.4,24.6,30.42,SW,222,0.0,0.0,82,0.00,,,0.04,WUHU216DAVISVP2,2013-01-07 22:39:00,
2013-01-07 17:44:00,29.1,24.6,30.42,SW,222,0.0,0.0,83,0.00,,,0.04,WUHU216DAVISVP2,2013-01-07 22:44:00,
2013-01-07 17:49:00,28.8,24.3,30.42,SW,222,0.0,0.0,83,0.00,,,0.04,WUHU216DAVISVP2,2013-01-07 22:49:00,
2013-01-07 17:54:00,28.5,24.0,30.42,SW,222,0.0,0.0,83,0.00,,,0.04,WUHU216DAVISVP2,2013-01-07 22:54:00,
2013-01-07 17:59:00,28.1,23.6,30.42,SW,222,0.0,0.0,83,0.00,,,0.04,WUHU216DAVISVP2,2013-01-07 22:59:00,
2013-01-07 18:04:00,27.8,23.6,30.42,SW,222,0.0,0.0,84,0.00,,,0.04,WUHU216DAVISVP2,2013-01-07 23:04:00,
2013-01-07 18:09:00,27.6,23.7,30.42,SW,222,0.0,0.0,85,0.00,,,0.04,WUHU216DAVISVP2,2013-01-07 23:09:00,
2013-01-07 18:14:00,27.4,23.5,30.42,SW,222,0.0,0.0,85,0.00,,,0.04,WUHU216DAVISVP2,2013-01-07 23:14:00,
2013-01-07 18:19:00,27.1,23.2,30.42,SW,222,0.0,0.0,85,0.00,,,0.04,WUHU216DAVISVP2,2013-01-07 23:19:00,
2013-01-07 18:24:00,26.8,22.9,30.42,SW,222,0.0,0.0,85,0.00,,,0.04,WUHU216DAVISVP2,2013-01-07 23:24:00,
2013-01-07 18:29:00,26.4,22.7,30.42,SW,222,0.0,0.0,86,0.00,,,0.04,WUHU216DAVISVP2,2013-01-07 23:29:00,
2013-01-07 18:34:00,26.1,22.5,30.42,SW,222,0.0,0.0,86,0.00,,,0.04,WUHU216DAVISVP2,2013-01-07 23:34:00,
2013-01-07 18:39:00,25.9,22.3,30.42,SW,222,0.0,0.0,86,0.00,,,0.04,WUHU216DAVISVP2,2013-01-07 23:39:00,
2013-01-07 18:44:00,25.7,22.3,30.42,SW,222,0.0,0.0,87,0.00,,,0.04,WUHU216DAVISVP2,2013-01-07 23:44:00,
2013-01-07 18:49:00,25.5,22.1,30.42,SW,222,0.0,0.0,87,0.00,,,0.04,WUHU216DAVISVP2,2013-01-07 23:49:00,
2013-01-07 18:54:00,25.3,22.2,30.42,SW,222,0.0,0.0,88,0.00,,,0.04,WUHU216DAVISVP2,2013-01-07 23:54:00,
2013-01-07 18:59:00,25.1,22.0,30.41,SW,222,0.0,0.0,88,0.00,,,0.04,WUHU216DAVISVP2,2013-01-07 23:59:00,
2013-01-07 19:04:00,24.8,21.8,30.41,SW,222,0.0,0.0,88,0.00,,,0.04,WUHU216DAVISVP2,2013-01-08 00:04:00,
2013-01-07 19:09:00,24.7,21.6,30.41,SW,222,0.0,0.0,88,0.00,,,0.04,WUHU216DAVISVP2,2013-01-08 00:09:00,
2013-01-07 19:14:00,24.5,21.7,30.41,SW,222,0.0,0.0,89,0.00,,,0.04,WUHU216DAVISVP2,2013-01-08 00:14:00,
2013-01-07 19:19:00,24.3,21.5,30.40,SW,222,0.0,0.0,89,0.00,,,0.04,WUHU216DAVISVP2,2013-01-08 00:19:00,
2013-01-07 19:24:00,24.2,21.4,30.41,SW,222,0.0,0.0,89,0.00,,,0.04,WUHU216DAVISVP2,2013-01-08 00:24:00,
2013-01-07 19:29:00,24.0,21.2,30.40,SW,222,0.0,0.0,89,0.00,,,0.04,WUHU216DAVISVP2,2013-01-08 00:29:00,
2013-01-07 19:34:00,23.8,21.0,30.41,SW,222,0.0,0.0,89,0.00,,,0.04,WUHU216DAVISVP2,2013-01-08 00:34:00,
2013-01-07 19:39:00,23.5,20.7,30.40,SW,222,0.0,0.0,89,0.00,,,0.04,WUHU216DAVISVP2,2013-01-08 00:39:00,
2013-01-07 19:44:00,23.3,20.8,30.40,SW,222,0.0,0.0,90,0.00,,,0.04,WUHU216DAVISVP2,2013-01-08 00:44:00,
2013-01-07 19:49:00,23.1,20.6,30.40,SW,222,0.0,0.0,90,0.00,,,0.04,WUHU216DAVISVP2,2013-01-08 00:49:00,
2013-01-07 19:54:00,23.0,20.8,30.40,SW,222,0.0,0.0,91,0.00,,,0.04,WUHU216DAVISVP2,2013-01-08 00:54:00,
2013-01-07 19:59:00,23.0,20.8,30.40,SW,222,0.0,0.0,91,0.00,,,0.04,WUHU216DAVISVP2,2013-01-08 00:59:00,
2013-01-07 20:04:00,22.8,20.5,30.40,SW,222,0.0,0.0,91,0.00,,,0.04,WUHU216DAVISVP2,2013-01-08 01:04:00,
2013-01-07 20:09:00,22.6,20.1,30.40,SW,222,0.0,0.0,90,0.00,,,0.04,WUHU216DAVISVP2,2013-01-08 01:09:00,
2013-01-07 20:14:00,22.4,19.9,30.40,SW,222,0.0,0.0,90,0.00,,,0.04,WUHU216DAVISVP2,2013-01-08 01:14:00,
2013-01-07 20:19:00,22.3,20.3,30.41,SW,222,0.0,0.0,92,0.00,,,0.04,WUHU216DAVISVP2,2013-01-08 01:19:00,
2013-01-07 20:24:00,22.3,20.3,30.40,SW,222,0.0,0.0,92,0.00,,,0.04,WUHU216DAVISVP2,2013-01-08 01:24:00,
2013-01-07 20:29:00,22.2,20.2,30.41,SW,222,0.0,0.0,92,0.00,,,0.04,WUHU216DAVISVP2,2013-01-08 01:29:00,
2013-01-07 20:34:00,22.1,19.8,30.41,SW,222,0.0,0.0,91,0.00,,,0.04,WUHU216DAVISVP2,2013-01-08 01:34:00,
2013-01-07 20:39:00,21.9,19.7,30.41,SW,222,0.0,0.0,91,0.00,,,0.04,WUHU216DAVISVP2,2013-01-08 01:39:00,
2013-01-07 20:44:00,21.7,19.7,30.41,SW,222,0.0,0.0,92,0.00,,,0.04,WUHU216DAVISVP2,2013-01-08 01:44:00,
2013-01-07 20:49:00,21.5,19.2,30.41,SW,222,0.0,0.0,91,0.00,,,0.04,WUHU216DAVISVP2,2013-01-08 01:49:00,
2013-01-07 20:54:00,21.4,19.4,30.41,SW,222,0.0,0.0,92,0.00,,,0.04,WUHU216DAVISVP2,2013-01-08 01:54:00,
2013-01-07 20:59:00,21.3,19.3,30.41,SW,222,0.0,0.0,92,0.00,,,0.04,WUHU216DAVISVP2,2013-01-08 01:59:00,
2013-01-07 21:04:00,21.1,19.1,30.41,SW,222,0.0,0.0,92,0.00,,,0.04,WUHU216DAVISVP2,2013-01-08 02:04:00,
2013-01-07 21:09:00,21.0,19.0,30.41,SW,222,0.0,0.0,92,0.00,,,0.04,WUHU216DAVISVP2,2013-01-08 02:09:00,
2013-01-07 21:14:00,21.0,19.0,30.41,SW,222,0.0,1.0,92,0.00,,,0.04,WUHU216DAVISVP2,2013-01-08 02:14:00,
2013-01-07 21:19:00,20.9,18.9,30.41,SW,222,0.0,1.0,92,0.00,,,0.04,WUHU216DAVISVP2,2013-01-08 02:19:00,
2013-01-07 21:24:00,20.8,18.8,30.41,SW,222,0.0,1.0,92,0.00,,,0.04,WUHU216DAVISVP2,2013-01-08 02:24:00,
2013-01-07 21:29:00,20.7,18.9,30.41,SW,222,0.0,1.0,93,0.00,,,0.04,WUHU216DAVISVP2,2013-01-08 02:29:00,
2013-01-07 21:34:00,20.6,18.8,30.41,SW,222,0.0,0.0,93,0.00,,,0.04,WUHU216DAVISVP2,2013-01-08 02:34:00,
2013-01-07 21:39:00,20.5,18.5,30.40,SW,222,0.0,0.0,92,0.00,,,0.04,WUHU216DAVISVP2,2013-01-08 02:39:00,
2013-01-07 21:44:00,20.3,18.3,30.40,SW,222,0.0,0.0,92,0.00,,,0.04,WUHU216DAVISVP2,2013-01-08 02:44:00,
2013-01-07 21:49:00,20.3,18.6,30.40,SW,222,0.0,1.0,93,0.00,,,0.04,WUHU216DAVISVP2,2013-01-08 02:49:00,
2013-01-07 21:54:00,20.2,18.5,30.40,SW,222,0.0,1.0,93,0.00,,,0.04,WUHU216DAVISVP2,2013-01-08 02:54:00,
2013-01-07 21:59:00,20.1,18.4,30.40,SW,222,0.0,1.0,93,0.00,,,0.04,WUHU216DAVISVP2,2013-01-08 02:59:00,
2013-01-07 22:04:00,20.0,18.0,30.41,SW,222,0.0,1.0,92,0.00,,,0.04,WUHU216DAVISVP2,2013-01-08 03:04:00,
2013-01-07 22:09:00,19.8,17.8,30.41,SW,222,0.0,0.0,92,0.00,,,0.04,WUHU216DAVISVP2,2013-01-08 03:09:00,
2013-01-07 22:14:00,19.7,18.0,30.41,SW,222,0.0,1.0,93,0.00,,,0.04,WUHU216DAVISVP2,2013-01-08 03:14:00,
2013-01-07 22:19:00,19.6,17.9,30.41,SSW,208,0.0,1.0,93,0.00,,,0.04,WUHU216DAVISVP2,2013-01-08 03:19:00,
2013-01-07 22:24:00,19.5,17.8,30.40,SSW,208,0.0,1.0,93,0.00,,,0.04,WUHU216DAVISVP2,2013-01-08 03:24:00,
2013-01-07 22:29:00,19.5,17.8,30.41,SSW,208,0.0,1.0,93,0.00,,,0.04,WUHU216DAVISVP2,2013-01-08 03:29:00,
2013-01-07 22:34:00,19.5,17.8,30.40,SSW,208,0.0,1.0,93,0.00,,,0.04,WUHU216DAVISVP2,2013-01-08 03:34:00,
2013-01-07 22:39:00,19.6,17.9,30.40,SSW,208,0.0,0.0,93,0.00,,,0.04,WUHU216DAVISVP2,2013-01-08 03:39:00,
2013-01-07 22:44:00,19.6,17.9,30.40,SSW,208,0.0,0.0,93,0.00,,,0.04,WUHU216DAVISVP2,2013-01-08 03:44:00,
2013-01-07 22:49:00,19.5,17.8,30.40,SSW,208,0.0,1.0,93,0.00,,,0.04,WUHU216DAVISVP2,2013-01-08 03:49:00,
2013-01-07 22:54:00,19.4,17.7,30.40,SSW,208,0.0,1.0,93,0.00,,,0.04,WUHU216DAVISVP2,2013-01-08 03:54:00,
2013-01-07 22:59:00,19.3,17.6,30.40,SSW,208,0.0,1.0,93,0.00,,,0.04,WUHU216DAVISVP2,2013-01-08 03:59:00,
2013-01-07 23:04:00,19.1,17.4,30.40,SSW,208,0.0,1.0,93,0.00,,,0.04,WUHU216DAVISVP2,2013-01-08 04:04:00,
2013-01-07 23:09:00,18.9,17.2,30.40,SSW,208,0.0,1.0,93,0.00,,,0.04,WUHU216DAVISVP2,2013-01-08 04:09:00,
2013-01-07 23:14:00,18.8,17.1,30.39,SSW,208,0.0,1.0,93,0.00,,,0.04,WUHU216DAVISVP2,2013-01-08 04:14:00,
2013-01-07 23:19:00,18.6,16.6,30.40,SSW,208,0.0,0.0,92,0.00,,,0.04,WUHU216DAVISVP2,2013-01-08 04:19:00,
2013-01-07 23:24:00,18.5,16.6,30.39,SSW,208,0.0,0.0,92,0.00,,,0.04,WUHU216DAVISVP2,2013-01-08 04:24:00,
2013-01-07 23:29:00,18.5,16.8,30.39,SSW,208,0.0,0.0,93,0.00,,,0.04,WUHU216DAVISVP2,2013-01-08 04:29:00,
2013-01-07 23:34:00,18.3,16.3,30.39,SSW,208,0.0,0.0,92,0.00,,,0.04,WUHU216DAVISVP2,2013-01-08 04:34:00,
2013-01-07 23:39:00,18.2,16.2,30.39,SSW,208,0.0,0.0,92,0.00,,,0.04,WUHU216DAVISVP2,2013-01-08 04:39:00,
2013-01-07 23:44:00,18.0,16.1,30.39,SSW,208,0.0,0.0,92,0.00,,,0.04,WUHU216DAVISVP2,2013-01-08 04:44:00,
2013-01-07 23:49:00,17.8,15.9,30.39,SSW,208,0.0,0.0,92,0.00,,,0.04,WUHU216DAVISVP2,2013-01-08 04:49:00,
2013-01-07 23:54:00,17.7,15.8,30.38,SSW,208,0.0,0.0,92,0.00,,,0.04,WUHU216DAVISVP2,2013-01-08 04:54:00,
2013-01-07 23:59:00,17.7,16.0,30.38,SSW,208,0.0,0.0,93,0.00,,,0.04,WUHU216DAVISVP2,2013-01-08 04:59:00,